Location: Unspecified
(0.0000°N, 0.0000°E)
Time: 02:43:15
(UTC+00:00)

JUGNU - Pass Details

Date: 12 December 2017
Orbit: 837 x 864 km, 20.0° (Epoch: 19 January)

Event Time Altitude Azimuth Distance (km) Brightness Sun altitude
Exits shadow 03:39:03 11° 30° (NNE) 2,397 ? -30.7°
Drops below altitude 10° 03:39:10 10° 31° (NNE) 2,428 ? -30.6°
Sets 03:42:28 0° 48° (NE) 3,387 ? -29.9°
